[[{"header":{"parameterUnit":"m.s-1","parameterCategory":1,"la1":30.2991,"la2":30.254,"lo1":-89.0895,"lo2":-89.0444,"dy":0.0017,"dx":0.0017,"nx":28,"ny":28,"refTime":"2025-07-26T21:00:00:Z","depth":0,"parameterNumber":2,"parameterNumberName":"U-component_of_WINDS"},"data":[0,0,0,0,0,0,0,0,0,0,0,0,0,0,0,0,0,0,0,0,0,0,0,0,0,0,0,0,0,0,0,0,0,0,0,0,0,0,0,0,0,0,0,0,0,0,0,0,0,0,0,0,0,0,0,0,0,0,-1.9716,-1.9717,0,-1.9813,-1.9814,-1.9815,-1.9851,-1.985,-1.985,-1.985,-1.9951,-1.9954,-1.9957,0,0,0,0,0,0,0,0,0,0,0,0,0,-1.9563,-1.9565,-1.9716,-1.9717,-1.9718,-1.9813,-1.9814,-1.9816,-1.9851,-1.985,-1.985,-1.985,-1.995,-1.9953,-1.9957,0,0,0,0,0,0,0,0,0,0,0,0,0,-1.9641,-1.9566,-1.9716,-1.9747,-1.9751,-1.9813,-1.9814,-1.9816,-1.9851,-1.985,-1.985,-1.9849,-1.9949,-1.9953,-1.9957,-1.9995,0,0,-1.9971,-1.9973,0,0,0,0,0,0,0,0,-1.9637,-1.9647,-1.9741,-1.9745,-1.975,-1.9819,-1.9797,-1.9876,-1.9851,-1.9813,-1.985,-1.9849,-1.9908,-1.9915,-1.9935,-2.0,-2.0004,-1.9972,-1.9974,-1.9976,-1.9978,0,0,0,0,0,0,0,-1.9631,-1.9643,-1.9754,-1.9743,-1.9748,-1.9757,-1.9768,-1.9812,-1.9862,-1.9816,-1.9819,-1.983,-1.991,-1.993,-1.9937,-2.0006,-1.9971,-1.9975,-1.9978,-1.998,-2.0107,-2.0107,0,0,0,0,0,0,-1.962,-1.9638,-1.9751,-1.9757,-1.9691,-1.976,-1.9772,-1.9797,-1.9862,-1.9871,-1.983,-1.9831,-1.9923,-1.9932,-1.9941,-1.9989,-1.9976,-1.998,-1.9983,-2.0106,-2.0107,-2.0107,0,0,0,0,0,0,-1.9617,-1.963,-1.9747,-1.9699,-1.9714,-1.9763,-1.9791,-1.98,-1.982,-1.9872,-1.9881,-1.9842,-1.9923,-1.9935,-1.9981,-1.9993,-1.9982,-1.9987,-2.0105,-2.0106,-2.0107,-2.0086,0,0,0,0,0,0,-1.9612,-1.9629,-1.9643,-1.9699,-1.9717,-1.9785,-1.9792,-1.9802,-1.9828,-1.983,-1.9886,-1.9894,-1.9923,-1.9974,-1.9986,-1.9999,-1.999,-2.0104,-2.0106,-2.0107,-2.0085,-2.0086,-2.0086,0,0,0,0,0,-1.9607,-1.9634,-1.9644,-1.9657,-1.9736,-1.9786,-1.9796,-1.9829,-1.9828,-1.9844,-1.9877,-1.9893,-1.999,-1.9979,-1.9992,-2.0007,-2.0104,-2.0105,-2.0107,-2.0085,-2.0086,-2.0086,0,0,0,0,0,0,-1.9579,-1.9642,-1.9653,-1.9699,-1.9737,-1.9792,-1.9812,-1.9828,-1.9867,-1.9868,-1.9907,-1.9919,-1.9962,-1.999,-1.9976,-2.0047,-2.0048,-2.0052,-2.0027,-2.0028,-2.0028,-2.0021,-1.9994,0,0,0,0,0,-1.9578,-1.9613,-1.9666,-1.9702,-1.972,-1.9762,-1.9786,-1.9807,-1.9848,-1.9865,-1.9901,-1.9941,-1.9981,-2.0006,-2.0045,-2.009,-2.0102,-2.0106,-2.0107,-2.0107,-2.011,-2.0135,-2.0137,-2.0112,-2.0112,-2.0112,0,0,-1.9577,-1.9616,-1.9635,-1.9697,-1.9729,-1.9765,-1.9776,-1.9814,-1.9841,-1.9871,-1.9916,-1.9945,-1.9992,-2.0037,-2.0059,-2.0061,-2.0119,-2.0109,-2.0108,-2.0111,-2.0137,-2.0139,-2.0141,-2.0113,-2.0113,-2.0113,0,0,-1.9593,-1.9626,-1.9658,-1.969,-1.9737,-1.9766,-1.9773,-1.9826,-1.9846,-1.9892,-1.9916,-1.9949,-2.0016,-2.0048,-2.0074,-2.0101,-2.0117,-2.0113,-2.0114,-2.0138,-2.014,-2.0142,-2.0152,-2.0155,-2.0116,-2.0116,-2.0116,0,-1.9586,-1.964,-1.9673,-1.9709,-1.9735,-1.9764,-1.9797,-1.9826,-1.9885,-1.9902,-1.9904,-1.9989,-2.0022,-2.0075,-2.0082,-2.0102,-2.0112,-2.0107,-2.0137,-2.0139,-2.0142,-2.0151,-2.0155,-2.0115,-2.0115,-2.0115,-2.0115,0,-1.9628,-1.9665,-1.9686,-1.9741,-1.9769,-1.9804,-1.9843,-1.9868,-1.9887,-1.9915,-1.9962,-2.0003,-2.0051,-2.0066,-2.0085,-2.0122,-2.0121,-2.0129,-2.0131,-2.0143,-2.0152,-2.0156,-2.0114,-2.0114,-2.0114,-2.0115,0,0,-1.963,-1.9701,-1.9708,-1.9733,-1.9788,-1.9818,-1.9854,-1.99,-1.992,-1.996,-1.9991,-2.0047,-2.0055,-2.0084,-2.0107,-2.0128,-2.0147,-2.0134,-2.0135,-2.0134,-2.0189,-2.0182,-2.0186,-2.0158,-2.0158,-2.0159,-2.0185,0,-1.9652,-1.9717,-1.9747,-1.9798,-1.9833,-1.986,-1.9892,-1.9929,-1.9956,-1.999,-2.002,-2.0059,-2.0067,-2.0084,-2.0106,-2.0139,-2.0158,-2.0138,-2.0187,-2.0188,-2.0174,-2.0191,-2.0184,-2.0207,-2.0189,-2.019,-2.019,0,-1.9687,-1.9725,-1.9779,-1.9829,-1.9845,-1.9872,-1.9917,-1.9949,-1.9992,-2.001,-2.0042,-2.0064,-2.0103,-2.0103,-2.0157,-2.0143,-2.0165,-2.0184,-2.0186,-2.0192,-2.019,-2.0197,-2.0215,-2.0218,-2.0197,-2.0196,-2.0196,0,-1.9682,-1.9747,-1.9788,-1.9808,-1.9868,-1.9886,-1.9912,-1.9954,-1.998,-2.0019,-2.0036,-2.008,-2.0103,-2.0137,-2.0171,-2.0167,-2.0222,-2.0224,-2.0238,-2.0237,-2.0248,-2.0247,-2.027,-2.0263,-2.0263,-2.0263,-2.0263,0,-1.9704,-1.9736,-1.9786,-1.9811,-1.9848,-1.9883,-1.9918,-1.9946,-1.9984,-2.0015,-2.0042,-2.007,-2.0113,-2.0148,-2.0175,-2.0215,-2.0226,-2.0242,-2.0249,-2.024,-2.0238,-2.0254,-2.0254,-2.0264,-2.0264,-2.0263,-2.0263,0,-1.9704,-1.9739,-1.9785,-1.9837,-1.9851,-1.9876,-1.9921,-1.9946,-1.9974,-2.0014,-2.0025,-2.007,-2.0112,-2.0149,-2.0204,-2.0222,-2.0264,-2.0273,-2.0249,-2.0253,-2.0265,-2.0263,-2.0299,-2.0305,-2.0294,-2.0294,-2.0294,0,-1.9716,-1.9741,-1.9795,-1.9817,-1.9842,-1.9878,-1.9904,-1.994,-1.9966,-2.0016,-2.0036,-2.0079,-2.0116,-2.0182,-2.022,-2.0262,-2.0272,-2.0282,-2.0279,-2.0268,-2.0272,-2.027,-2.0272,-2.0281,-2.0281,-2.0281,-2.0281,0,-1.9732,-1.9748,-1.9784,-1.9825,-1.9855,-1.989,-1.9926,-1.9943,-1.9986,-2.0014,-2.0056,-2.0085,-2.0141,-2.0184,-2.0231,-2.0258,-2.0277,-2.0282,-2.0287,-2.0278,-2.0263,-2.0271,-2.0249,-2.0281,-2.0281,-2.0281,-2.0281,-2.0281,-1.9738,-1.9762,-1.9803,-1.9842,-1.9872,-1.9905,-1.9931,-1.9963,-1.9998,-2.0046,-2.0066,-2.0109,-2.0151,-2.0216,-2.0243,-2.0278,-2.0281,-2.0289,-2.0291,-2.0293,-2.0291,-2.0258,-2.0287,-2.0287,-2.0287,-2.0287,-2.0287,0,-1.9756,-1.9784,-1.9819,-1.9868,-1.9898,-1.9912,-1.9952,-1.9977,-2.0015,-2.0052,-2.0087,-2.0136,-2.0178,-2.0219,-2.0263,-2.0283,-2.0293,-2.0294,-2.0292,-2.0298,-2.0286,-2.0276,-2.0285,-2.0285,-2.0285,-2.0285,-2.0285,-2.0285,-1.9769,-1.9808,-1.9829,-1.9884,-1.9912,-1.9954,-1.9976,-2.0006,-2.0036,-2.0089,-2.0123,-2.0149,-2.0188,-2.0235,-2.0275,-2.0286,-2.0301,-2.0299,-2.0312,-2.03,-2.0299,-2.0299,-2.029,-2.0302,-2.0302,-2.0322,-2.0322,-2.0322]},{"header":{"parameterUnit":"m.s-1","parameterCategory":1,"la1":30.2991,"la2":30.254,"lo1":-89.0895,"lo2":-89.0444,"dy":0.0017,"dx":0.0017,"nx":28,"ny":28,"refTime":"2025-07-26T21:00:00:Z","depth":0,"parameterNumber":3,"parameterNumberName":"V-component_of_WINDS"},"data":[0,0,0,0,0,0,0,0,0,0,0,0,0,0,0,0,0,0,0,0,0,0,0,0,0,0,0,0,0,0,0,0,0,0,0,0,0,0,0,0,0,0,0,0,0,0,0,0,0,0,0,0,0,0,0,0,0,0,5.0519,5.0518,0,5.0479,5.0478,5.0478,5.0432,5.0431,5.0431,5.043,5.0387,5.0386,5.0386,0,0,0,0,0,0,0,0,0,0,0,0,0,5.0554,5.0553,5.0519,5.0518,5.0518,5.0479,5.0478,5.0478,5.0432,5.0431,5.0431,5.043,5.0387,5.0386,5.0386,0,0,0,0,0,0,0,0,0,0,0,0,0,5.0529,5.0553,5.0519,5.049,5.0487,5.0479,5.0478,5.0478,5.0432,5.0431,5.043,5.0429,5.0387,5.0386,5.0386,5.0401,0,0,5.0383,5.0383,0,0,0,0,0,0,0,0,5.053,5.0527,5.0495,5.0492,5.0489,5.0459,5.0475,5.0452,5.0433,5.0453,5.043,5.0429,5.0412,5.0409,5.0403,5.0399,5.0397,5.0383,5.0383,5.0382,5.0382,0,0,0,0,0,0,0,5.0532,5.0529,5.0503,5.0495,5.0491,5.0479,5.0474,5.047,5.0439,5.0451,5.0448,5.0444,5.041,5.0404,5.0402,5.0397,5.0383,5.0383,5.0382,5.0382,5.0403,5.0404,0,0,0,0,0,0,5.0538,5.0531,5.0504,5.0502,5.0508,5.0479,5.0474,5.047,5.0438,5.0433,5.0445,5.0442,5.0406,5.0403,5.04,5.0416,5.0382,5.0382,5.0381,5.0402,5.0403,5.0404,0,0,0,0,0,0,5.0539,5.0536,5.0506,5.0515,5.051,5.048,5.0476,5.047,5.0464,5.0434,5.0428,5.0445,5.0405,5.0402,5.0401,5.0414,5.0381,5.0381,5.04,5.0402,5.0403,5.0448,0,0,0,0,0,0,5.054,5.0537,5.0543,5.0516,5.051,5.0508,5.0476,5.047,5.0463,5.0459,5.0432,5.0427,5.0404,5.0403,5.0401,5.0412,5.038,5.0399,5.0401,5.0403,5.0445,5.0451,5.0456,0,0,0,0,0,5.0542,5.0557,5.0543,5.0541,5.0517,5.0509,5.0506,5.048,5.0464,5.047,5.045,5.0428,5.0413,5.0403,5.04,5.0412,5.0398,5.04,5.0403,5.0443,5.045,5.0456,0,0,0,0,0,0,5.0585,5.0552,5.0538,5.0544,5.053,5.0501,5.0507,5.0488,5.0477,5.0473,5.0441,5.0436,5.0439,5.0426,5.0415,5.0425,5.0402,5.0404,5.0434,5.044,5.0445,5.0448,5.0379,0,0,0,0,0,5.0596,5.0593,5.0564,5.0572,5.0566,5.0538,5.0534,5.0515,5.0499,5.0492,5.0472,5.0457,5.0448,5.0444,5.0434,5.0443,5.0436,5.045,5.0455,5.0459,5.0461,5.0464,5.047,5.0411,5.0411,5.0411,0,0,5.0617,5.0599,5.0599,5.0581,5.0567,5.0564,5.0533,5.0531,5.0528,5.0491,5.049,5.0475,5.0456,5.046,5.0461,5.0449,5.0476,5.0462,5.0466,5.0465,5.0467,5.0473,5.0478,5.0413,5.0413,5.0412,0,0,5.0654,5.0641,5.0646,5.0634,5.0614,5.0595,5.0597,5.0571,5.056,5.0559,5.0531,5.0527,5.0514,5.0501,5.0492,5.0525,5.0504,5.0523,5.055,5.0554,5.0558,5.0562,5.0573,5.0578,5.0525,5.0525,5.0525,0,5.0683,5.0678,5.0651,5.0651,5.0644,5.0611,5.0616,5.0605,5.0583,5.0579,5.0566,5.0548,5.0533,5.0534,5.0542,5.0536,5.0536,5.0526,5.056,5.0563,5.0567,5.0577,5.0581,5.0528,5.0527,5.0527,5.0527,0,5.0714,5.0711,5.0717,5.0698,5.0691,5.0694,5.0667,5.0664,5.0646,5.0629,5.0627,5.0608,5.0594,5.0593,5.0575,5.0591,5.0584,5.0566,5.0542,5.0575,5.0584,5.0588,5.0531,5.053,5.0529,5.0529,0,0,5.0776,5.0743,5.0746,5.0737,5.0713,5.071,5.0711,5.0698,5.0695,5.0682,5.0681,5.0671,5.0654,5.0644,5.0625,5.0628,5.0655,5.061,5.0609,5.0618,5.0671,5.0684,5.069,5.0641,5.0642,5.0642,5.0672,0,5.0809,5.0809,5.0785,5.0792,5.0788,5.0757,5.0758,5.0743,5.0727,5.0721,5.0703,5.0696,5.0675,5.0669,5.0671,5.0652,5.0665,5.0649,5.0639,5.0639,5.0645,5.0694,5.0709,5.0738,5.0676,5.0677,5.0677,0,5.0846,5.0836,5.0842,5.0819,5.0816,5.0817,5.0804,5.0799,5.0781,5.0769,5.0759,5.0738,5.0736,5.0714,5.0711,5.0701,5.0696,5.0685,5.0686,5.0683,5.066,5.0693,5.0747,5.0751,5.0682,5.0682,5.0682,0,5.0891,5.0878,5.088,5.0873,5.0846,5.0847,5.0836,5.0818,5.0812,5.08,5.0795,5.0783,5.0776,5.0767,5.0742,5.0729,5.0742,5.0718,5.0731,5.0732,5.0734,5.0735,5.0788,5.0732,5.0732,5.0732,5.0732,0,5.0929,5.0934,5.09,5.0901,5.0906,5.0878,5.0883,5.0869,5.0853,5.085,5.0823,5.0821,5.0789,5.0783,5.0763,5.0763,5.0761,5.075,5.0745,5.0753,5.0754,5.0748,5.0745,5.0733,5.0733,5.0733,5.0733,0,5.0979,5.0957,5.0957,5.0931,5.0925,5.0929,5.0907,5.0907,5.089,5.0887,5.0884,5.0857,5.0848,5.0823,5.0808,5.0795,5.0801,5.0791,5.0807,5.0803,5.0818,5.0817,5.0869,5.0874,5.0816,5.0816,5.0817,0,5.1005,5.1008,5.0983,5.098,5.097,5.0965,5.0959,5.0932,5.0927,5.0907,5.0909,5.0899,5.089,5.0878,5.0856,5.0844,5.0833,5.0853,5.0831,5.0839,5.0833,5.0833,5.0833,5.0857,5.0858,5.0858,5.0859,0,5.1053,5.1042,5.1034,5.1023,5.1017,5.1007,5.0995,5.0994,5.0964,5.0959,5.0951,5.0943,5.0929,5.0918,5.0904,5.0891,5.087,5.0866,5.0868,5.0876,5.0885,5.088,5.0819,5.0865,5.0864,5.0864,5.0863,5.0863,5.1091,5.1092,5.1075,5.1068,5.1057,5.1046,5.1045,5.1028,5.1021,5.1007,5.0992,5.0985,5.0967,5.0945,5.0934,5.0928,5.0917,5.092,5.0921,5.0922,5.0926,5.0886,5.0925,5.0925,5.0925,5.0925,5.0925,0,5.1137,5.1125,5.1119,5.1103,5.1098,5.108,5.1066,5.1062,5.1057,5.1042,5.1034,5.1024,5.1015,5.0992,5.098,5.098,5.097,5.0977,5.0977,5.0974,5.0937,5.0936,5.0986,5.0986,5.0986,5.0986,5.0986,5.0986,5.116,5.1162,5.1149,5.1144,5.1132,5.1126,5.1119,5.111,5.1098,5.1089,5.1081,5.1067,5.1049,5.1036,5.1026,5.1019,5.1016,5.1027,5.1017,5.0983,5.0977,5.0971,5.097,5.1026,5.1026,5.1055,5.1055,5.1056]}]]